Regional Weather Roundup
Issued by NWS Memphis, TN

Home | Current Version | Previous Version | Text Only | Print | Product List | Glossary On
Versions: 1 2 3 4 5 6 7 8 9 10 11 12 13 14 15 16 17 18 19 20 21 22 23 24 25 26 27 28 29 30 31 32 33 34 35 36 37 38 39 40 41 42 43 44 45 46 47 48 49 50
000
ASUS44 KMEG 241810
RWRMEG
MEMPHIS CWA HOURLY WEATHER ROUNDUP
NATIONAL WEATHER SERVICE MEMPHIS TN
100 PM CDT WED AUG 24 2016

...WEST TENNESSEE...

CITY           SKY/WX    TMP DP  RH WIND       PRES   REMARKS
MEMPHIS INTL   MOSUNNY   93  75  55 SW7       30.17S HX 104
6HR MIN TEMP:  78; 6HR MAX TEMP:  94;

NWS MEMPHIS      N/A     90 N/A N/A MISG        N/A
JACKSON        PTSUNNY   91  75  59 S8        30.16F HX 101
6HR MIN TEMP:  71; 6HR MAX TEMP:  91;

LEXINGTON      MOSUNNY   90  75  62 S8          N/A  HX 100
DYERSBURG      PTSUNNY   91  75  59 MISG      30.14F HX 102
UNION CITY     SUNNY     91  77  62 SW10      30.13F HX 105
PARIS          SUNNY     88  75  66 S7        30.17F HX  97


...EASTERN ARKANSAS...

CITY           SKY/WX    TMP DP  RH WIND       PRES   REMARKS
JONESBORO      SUNNY     89  76  65 SW14G23   30.11F HX 100
6HR MIN TEMP:  73; 6HR MAX TEMP:  89;

WEST MEMPHIS   MOSUNNY   90  78  68 S10       30.14F HX 104
6HR MIN TEMP:  73; 6HR MAX TEMP:  90;

BATESVILLE     MOSUNNY   91  75  59 W10       30.12F HX 102
6HR MIN TEMP:  75; 6HR MAX TEMP:  91;

NEWPORT        SUNNY     91  78  65 S12       30.11F HX 106
6HR MIN TEMP:  75; 6HR MAX TEMP:  91;

WALNUT RIDGE   PTSUNNY   90  75  62 S17       30.10F HX 100
6HR MIN TEMP:  73; 6HR MAX TEMP:  90;

BLYTHEVILLE    MOSUNNY   91  78  65 S14       30.13F HX 106
6HR MIN TEMP:  75; 6HR MAX TEMP:  91;

NW BLYTHEVILLE PTSUNNY   91  75  59 SW14G22   30.13F HX 102
SEARCY         MOSUNNY   91  80  70 S10       30.14F HX 109
6HR MIN TEMP:  74; 6HR MAX TEMP:  92;

STUTTGART      MOSUNNY   91  73  55 S10       30.15F HX 100
6HR MIN TEMP:  75; 6HR MAX TEMP:  91;

PINE BLUFF     MOSUNNY   90  75  61 VRB7      30.15F HX 100
6HR MIN TEMP:  74; 6HR MAX TEMP:  90;

MONTICELLO     SUNNY     94  73  50 S8        30.15F HX 103
6HR MIN TEMP:  80; 6HR MAX TEMP:  94;



...NORTH MISSISSIPPI...

CITY           SKY/WX    TMP DP  RH WIND       PRES   REMARKS
TUPELO         PTSUNNY   91  71  51 SW6       30.17F HX  97
6HR MIN TEMP:  75; 6HR MAX TEMP:  93;

OXFORD         MOSUNNY   90  72  55 S7        30.20F HX  96
BATESVILLE     SUNNY     91  72  54 SW3       30.17F HX  98
6HR MIN TEMP:  71; 6HR MAX TEMP:  91;

TUNICA         SUNNY     90  73  58 SW8       30.17S HX  98
CLARKSDALE     SUNNY     91  77  62 S9        30.16F HX 105
CORINTH        PTSUNNY   90  73  58 S7        30.18S HX  98
GREENWOOD      SUNNY     91  72  53 CALM      30.17F HX  98
6HR MIN TEMP:  74; 6HR MAX TEMP:  92;

COLUMBUS       MOSUNNY   93  80  67 VRB2      30.16F HX 112
6HR MIN TEMP:  73; 6HR MAX TEMP:  93; 6HR PCP:  0.23;

GOLDEN TRIANGL PTSUNNY   93  72  49 CALM      30.17F HX 100


...SOUTHEAST MISSOURI...

CITY           SKY/WX    TMP DP  RH WIND       PRES   REMARKS
KENNETT        MOSUNNY   91  79  66 SW13      30.10F HX 107
WEST PLAINS    SUNNY     88  73  61 VRB7G17   30.14F HX  95
6HR MIN TEMP:  75; 6HR MAX TEMP:  88;

POPLAR BLUFF   SUNNY     89  75  63 SW9       30.09F HX  99
6HR MIN TEMP:  74; 6HR MAX TEMP:  89;

CAPE GIRARDEAU CLOUDY    88  74  63 SW9G21    30.09F HX  96
6HR MIN TEMP:  75; 6HR MAX TEMP:  88;



...NORTHWEST ALABAMA...

CITY           SKY/WX    TMP DP  RH WIND       PRES   REMARKS
MUSCLE SHOALS  MOSUNNY   92  71  50 VRB5      30.20F HX  98
6HR MIN TEMP:  72; 6HR MAX TEMP:  92;



...MIDDLE TENNESSEE...

CITY           SKY/WX    TMP DP  RH WIND       PRES   REMARKS
NASHVILLE      CLOUDY    90  71  53 VRB3      30.20F HX  96
6HR MIN TEMP:  71; 6HR MAX TEMP:  90;

CLARKSVILLE    PTSUNNY   86  74  67 S8        30.17F HX  94
6HR MIN TEMP:  71; 6HR MAX TEMP:  88;

COLUMBIA       PTSUNNY   90  77  66 S5        30.19F HX 102


...WESTERN KENTUCKY...

CITY           SKY/WX    TMP DP  RH WIND       PRES   REMARKS
PADUCAH        PTSUNNY   89  75  63 S12G21    30.12F HX  99
6HR MIN TEMP:  75; 6HR MAX TEMP:  89;

FORT CAMPBELL  MOSUNNY   89  75  62 SW13      30.16F HX 100
6HR MIN TEMP:  73; 6HR MAX TEMP:  89;



...CENTRAL ARKANSAS...

CITY           SKY/WX    TMP DP  RH WIND       PRES   REMARKS
LITTLE ROCK    MOSUNNY   91  75  59 SW8       30.14S HX 101
6HR MIN TEMP:  77; 6HR MAX TEMP:  93;



SKY/WX REPORTED AS FAIR MEANS FEW OR NO CLOUDS BELOW
12 THOUSAND FEET.





USA.gov is the U.S. government's official web portal to all federal, state and local government web resources and services.